TimeMST,TemperatureF,Dew PointF,Humidity,Sea Level PressureIn,VisibilityMPH,Wind Direction,Wind SpeedMPH,Gust SpeedMPH,PrecipitationIn,Events,Conditions,WindDirDegrees,DateUTC
12:52 AM,19.9,6.1,55,30.09,10.0,East,11.5,-,N/A,,Clear,100,2013-02-20 07:52:00
1:52 AM,19.0,5.0,54,30.07,10.0,East,9.2,-,N/A,,Clear,100,2013-02-20 08:52:00
2:52 AM,19.0,3.9,52,30.04,10.0,ESE,9.2,19.6,N/A,,Clear,120,2013-02-20 09:52:00
3:52 AM,19.9,5.0,52,30.03,10.0,SSE,8.1,-,N/A,,Clear,150,2013-02-20 10:52:00
4:52 AM,19.0,3.9,52,30.04,10.0,ESE,5.8,-,N/A,,Clear,110,2013-02-20 11:52:00
5:52 AM,18.0,3.9,54,30.04,10.0,East,5.8,-,N/A,,Clear,90,2013-02-20 12:52:00
6:52 AM,18.0,3.9,54,30.05,10.0,Variable,3.5,20.7,N/A,,Clear,0,2013-02-20 13:52:00
7:52 AM,19.0,3.9,52,30.04,10.0,Calm,Calm,-,N/A,,Clear,0,2013-02-20 14:52:00
8:49 AM,21.2,5.0,50,29.92,10.0,SSE,9.2,20.7,N/A,,Mostly Cloudy,160,2013-02-20 15:49:00
8:52 AM,21.9,6.1,51,30.04,10.0,South,9.2,18.4,N/A,,Mostly Cloudy,180,2013-02-20 15:52:00
10:02 AM,24.8,10.4,54,29.89,10.0,South,24.2,33.4,N/A,,Scattered Clouds,180,2013-02-20 17:02:00
10:52 AM,25.0,12.9,60,30.01,10.0,South,27.6,36.8,N/A,,Partly Cloudy,170,2013-02-20 17:52:00
11:30 AM,24.8,12.2,59,29.90,10.0,SSE,11.5,-,N/A,,Overcast,160,2013-02-20 18:30:00
11:52 AM,24.1,12.9,62,30.02,10.0,South,12.7,-,N/A,,Overcast,170,2013-02-20 18:52:00
12:52 PM,24.1,14.0,65,30.00,10.0,South,16.1,21.9,N/A,,Overcast,170,2013-02-20 19:52:00
1:52 PM,24.1,15.1,69,29.98,10.0,SSE,12.7,-,N/A,,Overcast,150,2013-02-20 20:52:00
2:52 PM,25.0,15.1,66,29.97,10.0,SSE,15.0,-,N/A,,Overcast,150,2013-02-20 21:52:00
3:52 PM,25.0,16.0,69,29.96,10.0,SE,17.3,-,N/A,,Overcast,140,2013-02-20 22:52:00
4:52 PM,24.1,18.0,77,29.98,10.0,SSE,12.7,19.6,N/A,,Overcast,150,2013-02-20 23:52:00
5:23 PM,23.0,17.6,80,29.86,10.0,SE,15.0,-,N/A,,Overcast,140,2013-02-21 00:23:00
5:35 PM,23.0,17.6,80,29.87,10.0,SSE,13.8,-,N/A,,Overcast,150,2013-02-21 00:35:00
5:52 PM,23.0,17.1,78,30.00,10.0,SSE,13.8,-,N/A,,Overcast,150,2013-02-21 00:52:00
6:47 PM,23.0,17.6,80,29.87,10.0,SSE,12.7,-,N/A,,Overcast,150,2013-02-21 01:47:00
6:52 PM,23.0,17.1,78,30.01,10.0,SSE,13.8,19.6,N/A,,Overcast,150,2013-02-21 01:52:00
8:52 PM,23.0,18.0,81,30.00,10.0,SSE,16.1,23.0,N/A,,Overcast,150,2013-02-21 03:52:00
9:21 PM,23.0,17.6,80,29.88,10.0,SSE,15.0,20.7,N/A,,Overcast,150,2013-02-21 04:21:00
9:52 PM,23.0,16.0,74,30.00,7.0,SE,10.4,-,0.00,Snow,Light Snow,140,2013-02-21 04:52:00
10:18 PM,21.2,15.8,80,29.89,2.0,SE,16.1,24.2,0.00,Snow,Light Snow,130,2013-02-21 05:18:00
10:26 PM,21.2,17.6,86,29.89,1.8,SE,10.4,20.7,0.00,Snow,Light Snow,130,2013-02-21 05:26:00
10:52 PM,21.0,17.1,85,30.01,1.2,SE,10.4,-,0.00,Snow,Light Snow,130,2013-02-21 05:52:00
11:12 PM,21.2,17.6,86,29.90,-9999.0,ESE,8.1,-,0.00,Snow,Light Snow,110,2013-02-21 06:12:00
11:37 PM,21.2,17.6,86,29.89,-9999.0,ESE,8.1,-,0.00,Snow,Light Snow,120,2013-02-21 06:37:00
11:52 PM,21.0,17.1,85,30.01,-9999.0,ESE,8.1,-,0.00,Snow,Light Snow,110,2013-02-21 06:52:00